Simultaneous Nadir Overpasses (SNOs) Predictions

Prediction of SNOs between GOES-15 and METOP-A Satellite Orbit:

Table of predicted SNOs for the next 14.0 days since TLE Epoch: 7/31/2021
Index Date Time (GOES-15) GOES-15 Lat,Lon METOP-A Lat,Lon Distance(km) Time Diff (sec)
1 07/31/2021 16:42:16 -0.16,-127.86 0.32,-130.19 264.75 80
2 08/01/2021 16:24:16 -0.17,-127.89 -0.76,-125.21 305.44 80
3 08/03/2021 04:43:16 0.15,-127.95 -0.24,-129.85 215.54 80
4 08/04/2021 04:19:56 0.17,-127.97 0.84,-124.87 353.25 80
5 08/05/2021 16:38:47 -0.15,-127.98 0.15,-129.47 169.45 80
6 08/06/2021 16:20:47 -0.17,-128.00 -0.93,-124.49 399.85 80
7 08/08/2021 04:39:47 0.15,-128.06 -0.06,-129.14 121.52 80
8 08/09/2021 04:16:26 0.17,-128.08 1.02,-124.15 446.57 80
9 08/10/2021 16:35:18 -0.16,-128.07 -0.03,-128.76 77.66 80
10 08/11/2021 16:17:17 -0.17,-128.09 -1.11,-123.78 491.19 80
11 08/13/2021 04:36:17 0.15,-128.15 0.06,-128.41 30.14 80
